Location: Ailingen
(47.6833°N, 9.5000°E)
Time: 07:32:11
(UTC+00:00)

Tsikada Rocket - Pass Details

Date: 18 November 2025
Orbit: 957 x 1008 km, 82.9° (Epoch: 13 December)

Event Time Altitude Azimuth Distance (km) Brightness Sun altitude
Rises 16:26:52 0° 350° (N) 3,750 7.0 -7.7°
Reaches altitude 10° 16:29:25 10° 350° (N) 2,793 6.3 -8.1°
Maximum altitude 16:35:51 84° 265° (W) 1,013 4.2 -9.1°
Drops below altitude 10° 16:42:11 10° 176° (S) 2,749 6.5 -10.1°
Sets 16:44:41 0° 176° (S) 3,686 7.2 -10.5°
